Regional Weather Roundup
Issued by NWS Wilmington, NC

Home | Current Version | Previous Version | Text Only | Print | Product List | Glossary On
Versions: 1 2 3 4 5 6 7 8 9 10 11 12 13 14 15 16 17 18 19 20 21 22 23 24 25 26 27 28 29 30 31 32 33 34 35 36 37 38 39 40 41 42 43 44 45 46 47 48 49 50
000
ASUS42 KILM 300710
RWRILM
RWRILM
REGIONAL HOURLY WEATHER ROUNDUP
NATIONAL WEATHER SERVICE WILMINGTON NC
300 AM EDT WED JUL 30 2014

NOTE: "FAIR" INDICATES FEW OR NO CLOUDS BELOW 12,000 FEET WITH NO
SIGNIFICANT WEATHER AND/OR OBSTRUCTIONS TO VISIBILITY.

...............WFO WILMINGTON COUNTY WARNING AREA...............

......COASTAL NC AND SC COUNTIES......

CITY           SKY/WX    TMP DP  RH WIND       PRES   REMARKS
WILMINGTON     CLEAR     69  68  96 NE3       29.96S
SOUTHPORT      CLOUDY    75  70  84 NE3       29.95F
N MYRTLE BEACH PTCLDY    72  66  81 NE6       29.95S
MYRTLE BEACH   PTCLDY    73  70  88 N3        29.95S

......INLAND NC AND SC COUNTIES.......

CITY           SKY/WX    TMP DP  RH WIND       PRES   REMARKS
LUMBERTON      CLEAR     68  64  87 CALM      29.97S
ELIZABETHTOWN  CLEAR     68  63  83 CALM      29.97F
WHITEVILLE     CLEAR     68  65  92 CALM      29.96F
FLORENCE       CLEAR     68  62  81 NE5       29.97S
DARLINGTON     CLEAR     66  61  82 NE3       29.99S

....................REST OF NORTH CAROLINA......................

.........EASTERN NC.........

CITY           SKY/WX    TMP DP  RH WIND       PRES   REMARKS
CAPE HATTERAS  MOCLDY    73  65  75 NE7       29.96F
JACKSONVILLE   CLEAR     64  61  88 CALM      29.98S
MOREHEAD CITY  MOCLDY    74  66  76 NE5       29.96F
KENANSVILLE    CLEAR     63  61  94 CALM      29.99S
NEW BERN       CLEAR     72  65  78 NE3       29.99S
ELIZABETH CITY CLEAR     64  62  93 CALM      29.98F

.........CENTRAL NC.........

CITY           SKY/WX    TMP DP  RH WIND       PRES   REMARKS
RALEIGH DURHAM MOCLDY    67  60  78 N6        30.02R
ROCKY MOUNT    CLEAR     61  59  93 CALM      29.99S
ROANOKE RAPIDS NOT AVBL
FAYETTEVILLE   CLEAR     67  61  81 CALM      29.98R
HOFFMAN        CLEAR     62  61  96 W1        30.00S

.........WESTERN NC.........

CITY           SKY/WX    TMP DP  RH WIND       PRES   REMARKS
CHARLOTTE      MOCLDY    67  53  61 N8        30.03R
GREENSBORO     PTCLDY    65  55  70 N5        30.03S
HICKORY        NOT AVBL
BOONE          NOT AVBL
ASHEVILLE      NOT AVBL

.....................REST OF SOUTH CAROLINA.....................

.........EASTERN SC.........

CITY           SKY/WX    TMP DP  RH WIND       PRES   REMARKS
CHARLESTON     CLEAR     73  69  87 NE3       29.95R
BEAUFORT MCAS  CLEAR     75  71  87 CALM      29.94S
HILTON HEAD    NOT AVBL

.........CENTRAL SC.........

CITY           SKY/WX    TMP DP  RH WIND       PRES   REMARKS
COLUMBIA       PTCLDY    71  61  70 S3        29.96F
ORANGEBURG     CLOUDY    73  63  70 NE3       29.96S
SUMTER SHAW    CLEAR     69  62  78 E2        29.96R

.........WESTERN SC.........

CITY           SKY/WX    TMP DP  RH WIND       PRES   REMARKS
GREENVILLE     NOT AVBL
ROCK HILL      PTCLDY    68  57  68 NE8       30.03R
ANDERSON       CLEAR     66  54  65 NE3       30.02S
CLEMSON        NOT AVBL
GREENWOOD      CLEAR     64  58  80 N3        30.02S


...................COASTAL AND OFFSHORE REPORTS..................

................LOCAL PIERS AND NC RESERVE................


STATION/POSITION TIME  SKY/WX   TEMP    WIND        PRES    VSBY
                                AIR SEA DIR/SP/G
                 (UTC)          (F)     (DEG/KT/KT) (MB)    (MI)
JOHNY MRCER PIER 0700            78 83   80/ 10/ 12 1013.9F
NC RESRV MASNBRO 0600            76      70/  4     1014.0S
OCEAN CREST PIER 0700            75 84   50/  6/  7 1013.2F
SPRINGMAID  PIER 0700            79 83   60/ 12/ 13 1014.2R


................COASTAL AND OFFSHORE BUOYS................


STATION/POSITION TIME  SKY/WX   TEMP    WIND        PRES    VSBY
                                AIR SEA DIR/SP/G
                 (UTC)          (F)     (DEG/KT/KT) (MB)    (MI)
DIMNDSHOAL 41025 0700                   VRB 14/ 17  1014.1F
WVE H/P(F/S)=  4/ 8 WND WVE H/P(F/S)=  3/ 6 SWL H/P/D(F/S/D)=  2/120/ 8

CAPE LOOKOUT     0600            78      50/ 12/ 13 1014.5F
ONSLOW BAY 41036 0600            79 81   80/ 12/ 14 1014.6F
5 WRITEBCH 41038 0600            74 81   90/ 12/ 14   N/A
MASONBORO  41110 0700               82                N/A
WVE H/P(F/S)=  3/ 6 WND WVE H/P(F/S)=  3/ 6

WILM HARBR 41108 NOT AVBL
27WRITEBCH 41037 0600            75 82   90/ 14/ 16 1014.2F
FRYING PAN 41013 NOT AVBL
SUNST NRSH 41024 0600            78      70/ 12/ 14 1014.1F
CAPRS NRSH 41029 0600            81      90/  6/  6   N/A
EDISTO     41004 0700            81 84   70/  8/  8 1013.2F
WVE H/P(F/S)=  2/ 8 WND WVE H/P(F/S)=  2/ 4 SWL H/P/D(F/S/D)=  2/ 8



..........OFFSHORE BUOYS BEYOND 100 NM OFFSHORE...........
.....IN A TRIANGLE---HAT TO BERMUDA TO BAHAMAS TO HAT.....


STATION/POSITION TIME  SKY/WX   TEMP    WIND        PRES    VSBY
                                AIR SEA DIR/SP/G
                 (UTC)          (F)     (DEG/KT/KT) (MB)    (MI)
150E HAT   41001 NOT AVBL
W BERMUDA  41048 0623            82 82  180/ 19/ 21 1017.3S
WVE H/P(F/S)=  6/ 7 WND WVE H/P(F/S)=  7/ 7 SWL H/P/D(F/S/D)=  2/220/15

ATLANTIC S 41049 0615            82 83  110/ 14/ 16 1020.6F
WVE H/P(F/S)=  3/ 6 WND WVE H/P(F/S)=  3/ 6 SWL H/P/D(F/S/D)=  2/130/ 7

E BAHAMAS  41046 0624            82 84  120/ 12/ 14 1017.7F
WVE H/P(F/S)=  3/ 8 WND WVE H/P(F/S)=  3/ 5 SWL H/P/D(F/S/D)=  2/ 90/ 8

NE BAHAMAS 41047 0642            83 84  170/ 14/ 16 1017.7F
WVE H/P(F/S)=  4/ 8 WND WVE H/P(F/S)=  2/ 5 SWL H/P/D(F/S/D)=  3/120/ 8

120E CANVRL41010 0700            83 84  250/ 14/ 17 1013.4F
WVE H/P(F/S)=  3/ 5 WND WVE H/P(F/S)=  3/ 5 SWL H/P/D(F/S/D)=  2/ 90/ 8


END


USA.gov is the U.S. government's official web portal to all federal, state and local government web resources and services.